Location: Arclight Observatory
(36.5667°N, 87.3333°W)
Time: 11:29:02
(UTC-05:00)

Daily predictions for brighter satellites

Satellite Brightness Start Highest point End
(mag) Time Altitude Azimuth Time Altitude Azimuth Time Altitude Azimuth
Meteosat 1 Rocket2 4.5 20:18:22 10° WSW 20:22:59 38° S 20:29:42 10° ESE
COSMOS 2406 3.3 20:25:21 10° NNW 20:31:07 78° ENE 20:36:49 10° SSE
Cosmos 2278 Rocket 2.8 20:28:44 10° SSE 20:33:48 35° ESE 20:38:53 10° NE
Cosmos 1844 Rocket 2.7 20:28:29 10° SSW 20:34:07 78° ESE 20:39:47 10° NNE
Cosmos 1825 3.7 20:31:51 10° SE 20:34:35 19° E 20:37:21 10° NE
Coronas F rocket 1.9 20:32:55 10° SSW 20:35:31 58° W 20:38:08 10° N
Cosmos 2084 3.3 20:32:32 10° SSW 20:36:20 53° ESE 20:40:04 10° NE
Cosmos 1844 3.8 20:33:32 10° S 20:39:12 62° ESE 20:44:55 10° NNE
Meteor 2-10 Rocket 3.8 20:34:02 10° N 20:39:52 90° W 20:45:28 10° S
BREEZE-M DEB (TANK) 1.9 20:38:47 10° NW 20:40:46 68° NE 20:43:47 12° ESE
FENGYUN 3A 3.9 20:35:24 10° S 20:40:47 76° WSW 20:46:12 10° NNW
Cosmos 2056 Rocket 4.0 20:36:09 10° SSW 20:41:16 66° WNW 20:46:22 10° NNE
Cosmos 1908 Rocket 4.0 20:41:49 10° SSE 20:45:57 41° E 20:50:08 10° NNE
Cosmos 1733 Rocket 3.2 20:42:34 10° S 20:46:59 77° W 20:51:23 10° N
Cosmos 1378 Rocket 4.5 20:45:29 10° NNE 20:49:17 29° ENE 20:52:23 14° SE
COS B Rocket 4.3 20:46:23 10° NNE 20:49:41 26° E 20:51:57 14° SE
PSLV R/B 4.1 20:46:53 10° W 20:50:08 42° SSW 20:52:45 15° SE
Cosmos 2082 Rocket 4.1 20:52:10 10° NNE 20:55:28 15° NE 20:58:45 10° E
SL-27 R/B 2.8 20:55:14 10° NNW 20:58:50 65° WSW 21:02:21 10° S
deb Chang Zheng 4 3.8 20:55:42 10° NNE 21:00:00 50° E 21:04:19 10° S
CZ-4 DEB 2.9 20:56:52 10° S 21:00:01 73° W 21:03:11 10° NNW
GPS 2-05 Rocket1 2.9 21:01:03 10° WSW 21:04:45 71° S 21:07:26 17° E
EO 1 Delta rocket 4.2 21:02:28 10° NNE 21:08:13 58° E 21:12:59 10° S
Cosmos 2154 Rocket 3.9 21:02:13 10° S 21:08:23 72° E 21:14:34 10° N
Cosmos 2297 4.3 21:04:58 10° SSE 21:10:04 35° ESE 21:15:12 10° NE
Envisat 3.0 21:09:02 15° SSE 21:13:12 64° ENE 21:18:14 10° N
Cosmos 1862 3.2 21:10:23 10° S 21:14:26 79° E 21:18:31 10° N
H-2A R/B 2.1 21:12:34 19° SSE 21:15:34 62° ENE 21:19:46 10° N
SEDSat Delta rocket 3.9 21:12:00 10° SW 21:15:42 27° SSE 21:16:42 24° SE
CZ-3C R/B 3.8 20:47:56 10° WSW 21:18:50 31° SSW 21:23:56 19° SE
APEX 3.6 21:17:49 13° S 21:20:53 48° ESE 21:25:28 10° NNE
Cosmos 1606 2.7 21:18:08 10° N 21:22:05 83° W 21:24:56 18° S
COSMOS 2487 2.7 21:18:33 10° N 21:22:06 53° ENE 21:23:26 32° SE
Cosmos 1420 Rocket 3.9 21:19:31 10° S 21:24:42 65° ESE 21:29:53 10° NNE
ERS-1 Rocket 3.4 21:22:53 10° S 21:27:50 60° WSW 21:32:49 10° NNW
MetOp-B 4.4 21:25:26 24° SE 21:28:26 52° ENE 21:33:36 10° N
CZ-4 SHROUD 3.6 21:32:36 40° E 21:32:47 41° ENE 21:35:43 10° N
Meteor 1-27 Rocket 3.9 21:27:42 10° NNW 21:33:14 72° W 21:37:56 14° S
PSLV R/B 3.4 21:33:21 45° E 21:33:24 45° ENE 21:36:15 10° N
Cosmos 407 Rocket 4.3 21:29:06 10° NNW 21:34:11 49° WSW 21:38:45 13° S
Cosmos 1140 Rocket 3.5 21:32:12 10° N 21:37:19 63° ENE 21:39:36 32° SE
Okean 3 3.4 21:34:52 10° N 21:39:09 90° E 21:41:10 31° S
H-2A R/B 3.5 21:42:13 20° E 21:43:29 22° ENE 21:47:31 10° NNE
USA 234 4.0 21:38:06 10° ENE 21:43:02 27° ESE 21:43:02 27° ESE
Okean 2 Rocket 3.1 21:45:11 19° SSW 21:48:20 77° W 21:52:45 10° N
ARGOS 3.5 21:46:30 34° ESE 21:48:20 47° ENE 21:53:26 10° N
CZ-4B R/B 3.4 21:43:52 10° NNE 21:48:41 55° E 21:50:13 38° SSE
SL-08 RB Rocket 4.4 21:49:27 35° E 21:50:15 38° ENE 21:54:31 10° N
Elektron 3 4.4 21:48:51 10° NNW 21:51:51 60° NE 21:52:32 50° ESE
ATLAS 5 CENTAUR R/B 4.4 21:48:45 10° WNW 21:53:16 21° WSW 21:57:55 10° SSW
Cosmos 1939 Rocket 4.4 21:52:48 15° SSW 21:55:21 30° W 21:58:50 10° NW
Cosmos 1184 Rocket 4.5 21:52:57 13° SW 21:55:31 33° WNW 21:58:35 10° NNW
YAOGAN 6 2.3 21:56:01 75° S 21:56:17 89° WSW 21:59:49 10° NNW
Terra 3.3 21:56:47 22° ENE 21:57:05 22° ENE 22:00:43 10° NNE
OAO 3 Rocket 3.2 21:52:33 10° WSW 21:57:25 57° SSE 21:58:14 50° SE
Cosmos 1242 Rocket 2.5 21:53:54 10° N 21:57:35 82° W 21:58:03 66° S
ISS -0.3 21:55:31 10° WNW 21:57:49 18° NNW 22:00:07 10° NNE
SPOT 1/Viking Rocket 3.5 21:57:08 43° SE 21:58:48 68° ENE 22:03:59 10° N
Atlas Centaur 2 3.2 21:56:45 10° WSW 21:57:58 15° SW 21:57:58 15° SW
Cosmos 2218 Rocket 4.0 22:00:20 29° S 22:03:53 76° E 22:10:17 10° N
Cosmos 1238 Rocket 4.2 22:02:34 10° NNW 22:05:42 32° W 22:07:25 22° SW
SPOT 5 3.6 22:04:32 26° SSW 22:07:21 54° W 22:12:37 10° NNW
SL-08 R/B 4.5 22:11:40 30° S 22:15:06 89° E 22:21:36 10° N
Cosmos 1975 Rocket 4.2 22:12:23 10° NNW 22:16:25 38° W 22:18:00 28° SW
Cosmos 1833 Rocket 2.9 22:11:01 10° NNW 22:16:32 54° ENE 22:17:28 48° E
Meteor 1-25 Rocket 4.2 22:15:15 50° SSE 22:16:35 65° E 22:22:21 10° NNE
Cosmos 1959 Rocket 4.4 22:13:55 30° S 22:17:08 84° W 22:23:16 10° N
Cosmos 2278 Rocket 4.1 22:12:56 10° WSW 22:17:51 30° WNW 22:22:48 10° N
Meteor 2-19 Rocket 4.4 22:16:38 49° SE 22:18:00 61° E 22:24:01 10° NNE
DNEPR-1 R/B 3.7 22:13:35 10° NW 22:18:40 66° WSW 22:19:11 60° SSW
Cosmos 1850 Rocket 4.1 22:13:36 10° NNW 22:18:55 71° WSW 22:20:15 50° S
Cosmos 1727 Rocket 3.9 22:14:54 10° N 22:21:04 66° E 22:22:23 52° SE
Lacrosse 5 3.8 22:25:04 16° ENE 22:25:04 16° ENE 22:26:11 10° NE
Cosmos 1536 Rocket 3.6 22:24:56 10° N 22:29:10 77° NNE 22:29:10 77° NNE
Meteor 2-8 Rocket 4.3 22:25:19 10° N 22:31:30 81° E 22:32:43 59° SSE
USA 229 DEB 3.8 22:24:30 10° NNW 22:31:38 75° ENE 22:33:32 52° SE
USA 229 3.8 22:24:36 10° NNW 22:31:44 74° ENE 22:33:38 51° SE
Meteor 1-18 Rocket 4.2 22:31:46 10° N 22:37:42 89° W 22:38:40 65° S
BREEZE-M DEB (TANK) 2.8 22:30:31 10° NW 22:38:18 74° W 22:38:18 74° W
ASTEX 1 4.2 22:34:32 10° NNE 22:38:12 39° ENE 22:38:12 39° ENE
Cosmos 2082 Rocket 2.1 22:34:28 10° NNW 22:40:09 74° WSW 22:40:49 66° SSW
Cosmos 1812 3.9 22:36:52 10° N 22:39:21 37° N 22:39:21 37° N
Cosmos 1331 Rocket 3.8 22:43:57 88° NNW 22:43:57 88° NNW 22:49:05 10° NNE
Cosmos 1339 Rocket 4.3 22:37:47 10° N 22:44:00 84° E 22:44:51 68° SSE
DMSP B5D2-2 4.0 22:43:03 10° NNE 22:48:00 78° NE 22:48:00 78° NE
Cosmos 1821 Rocket 4.5 22:52:03 44° ENE 22:52:03 44° ENE 22:57:22 10° NNE
Cosmos 1110 Rocket 4.2 22:50:53 58° WSW 22:51:35 65° WNW 22:56:47 10° NNE
IGS 5A 4.5 22:54:28 43° N 22:54:28 43° N 22:57:21 10° N
Meteor 1-11 Rocket 4.0 23:06:55 62° NE 23:06:55 62° NE 23:11:56 10° NNE
Meteor 2-21 4.5 23:07:16 65° ENE 23:07:16 65° ENE 23:13:00 10° NNE
Cosmos 1809 Rocket 4.4 23:11:31 72° ENE 23:11:31 72° ENE 23:17:18 10° N
Okean 1 Rocket 4.3 23:15:49 41° NNW 23:15:49 41° NNW 23:19:00 10° N
NOSS 3-1 (C) 4.2 23:12:06 10° NNW 23:19:42 63° NE 23:21:03 56° E
Cosmos 1486 Rocket 4.4 23:15:43 10° NNW 23:20:03 60° NNW 23:20:03 60° NNW
H-2A R/B 3.0 23:22:52 42° W 23:22:52 42° W 23:27:39 10° NNW
Cosmos 2369 Rocket 3.1 23:26:50 39° NE 23:26:50 39° NE 23:30:23 10° NNE
USA 234 3.4 23:20:19 10° NE 23:26:49 71° NW 23:30:12 30° WSW
Terra 3.4 23:35:40 30° WNW 23:35:40 30° WNW 23:38:54 10° NNW
CZ-3 Stage 3 4.2 23:06:34 10° W 23:37:00 52° SSW 23:37:00 52° SSW
